Content
SEND FEEDBACK

Daily
Averages
Monthly
Summary
United States of America

GREENLAND, NEW HAMPSHIRE


Home > North America > United States > New Hampshire
Elevation: 6 feet     Latitude: 43 02N     Longitude: 070 51W

WEATHER
 
SELECT A DAY
Number of Records: 203,019;   Date Range: 1/1/95 - 8/12/14
 
SHARE

PRINT THIS DATA

[ ← Previous Day ]
WEATHER ALMANAC - JANUARY 31, 2013
[ Next Day → ]
[ °C ]   °F
Weather ElementAverageHighLow
Temperature49.6 °F62.6 °F (5:31 am)30.7 °F (11:55 pm)
Dewpoint38.9 °F59 °F (4:28 am)5.9 °F (11:55 pm)
Humidity71.2 %100 % (1:27 am)34 % (3:55 pm)
Barometer29.19 in29.52 in (11:55 pm)28.91 in (9:44 am)
Wind Speed20.4 mph29.9 mph (6:34 am)
Wind Gust48.3 mph (6:55 am)
Weather ElementAverage
Visibility7.2 mi
Wind DirectionSSW (211.2 °)

Weather ElementTotal
Precipitation0.24 in
Heating Degree Days18.4 (Base 65)
Averaged from 33 records on January 31, 2013
WEATHER CONDITIONS BREAKOUT
WIND DIRECTION BREAKOUT
WEATHER BY HOUR - JANUARY 31, 2013
[ °C ]   °F
Local TimeTemperatureDewpointHumidityBarometerVisibilityWind DirectionWind SpeedGust SpeedPrecipitationEventsConditions
12:55 AM55.6 °F55.2 °F99 %29.39 in7.0 miSouth (170°)11.5 mph0.00 inOvercast
1:27 AM53.6 °F53.6 °F100 %29.36 in2.0 miSE (140°)13.8 mphLight Drizzle
1:55 AM54.0 °F53.6 °F99 %29.33 in2.0 miSSE (150°)13.8 mph0.00 inLight Drizzle
2:39 AM55.4 °F53.6 °F94 %29.28 in2.0 miSSE (150°)13.8 mphRainLight Rain
2:55 AM55.0 °F54.7 °F99 %29.26 in2.0 miSSE (160°)12.7 mph0.01 inRainLight Rain
3:19 AM57.2 °F57.2 °F100 %29.23 in3.0 miSouth (170°)15.0 mphRainLight Rain
3:55 AM58.6 °F58.3 °F99 %29.17 in5.0 miSouth (170°)20.7 mph27.6 mph0.00 inRainLight Rain
4:28 AM59.0 °F59.0 °F100 %29.12 in7.0 miSouth (180°)16.1 mph33.4 mphOvercast
4:55 AM60.6 °F57.6 °F90 %29.10 in7.0 miSouth (180°)27.6 mph39.1 mph0.00 inOvercast
5:14 AM60.8 °F57.2 °F88 %29.08 in10.0 miSouth (180°)26.5 mph36.8 mphOvercast
5:31 AM62.6 °F57.2 °F82 %29.06 in7.0 miSouth (180°)21.9 mph44.9 mphRainLight Rain
5:55 AM61.3 °F58.1 °F89 %29.03 in5.0 miSouth (190°)20.7 mph35.7 mph0.02 inRainLight Rain
6:23 AM60.8 °F59.0 °F94 %28.98 in2.0 miSouth (170°)24.2 mph44.9 mphRainRain
6:34 AM59.0 °F59.0 °F100 %28.97 in3.0 miSouth (170°)29.9 mph43.7 mphRainLight Rain
6:55 AM59.4 °F58.8 °F98 %28.97 in3.0 miSouth (180°)28.8 mph48.3 mph0.10 inRainLight Rain
7:55 AM59.5 °F57.4 °F93 %28.97 in10.0 miSouth (190°)12.7 mph23.0 mph0.03 inRainLight Rain
8:55 AM59.0 °F54.1 °F84 %28.92 in10.0 miSouth (180°)18.4 mph27.6 mph0.01 inOvercast
9:44 AM59.0 °F51.8 °F77 %28.91 in2.0 miWSW (250°)26.5 mph36.8 mphRainHeavy Rain Showers
9:55 AM51.1 °F46.6 °F85 %28.96 in10.0 miWSW (250°)21.9 mph31.1 mph0.06 inRainLight Rain Showers
10:55 AM44.1 °F37.9 °F79 %29.00 in10.0 miWSW (250°)24.2 mph34.5 mph0.01 inScattered Clouds
11:55 AM47.8 °F32.4 °F55 %29.07 in10.0 miWSW (250°)20.7 mph34.5 mphScattered Clouds
12:55 PM45.5 °F22.6 °F41 %29.11 in10.0 miWest (260°)20.7 mph34.5 mphPartly Cloudy
1:55 PM44.8 °F19.4 °F36 %29.15 in10.0 miWest (260°)26.5 mph38.0 mphPartly Cloudy
2:55 PM42.6 °F17.4 °F36 %29.21 in10.0 miWest (270°)20.7 mph33.4 mphPartly Cloudy
3:55 PM39.6 °F13.1 °F34 %29.27 in10.0 miWSW (250°)25.3 mph41.4 mphPartly Cloudy
4:55 PM37.4 °F13.8 °F38 %29.33 in10.0 miWest (270°)20.7 mph39.1 mphMostly Cloudy
5:55 PM36.5 °F12.4 °F37 %29.36 in10.0 miWest (260°)27.6 mph40.3 mphScattered Clouds
6:55 PM35.4 °F10.4 °F36 %29.40 in10.0 miWSW (250°)19.6 mph27.6 mphPartly Cloudy
7:55 PM34.3 °F11.7 °F39 %29.44 in10.0 miWSW (250°)15.0 mph29.9 mphScattered Clouds
8:55 PM32.9 °F10.2 °F39 %29.46 in10.0 miWSW (250°)18.4 mph29.9 mphScattered Clouds
9:55 PM31.8 °F9.0 °F38 %29.48 in10.0 miWSW (240°)21.9 mph32.2 mphPartly Cloudy
10:55 PM31.1 °F6.8 °F36 %29.50 in10.0 miWSW (250°)17.3 mph32.2 mphPartly Cloudy
11:55 PM30.7 °F5.9 °F35 %29.52 in10.0 miWSW (250°)19.6 mph28.8 mphPartly Cloudy
Hourly data recorded from KPSM, located miles away from Greenland, New Hampshire







STORIES FROM OUR PARTNERS